AirNav   Air Wisconsin Airman Trainee
 
 848 users online  

CL35 Warner Springs Gliderport
Warner Springs, California, USA

GOING TO WARNER SPRINGS?


FAA INFORMATION EFFECTIVE 28 FEBRUARY 2019

Location

FAA Identifier: CL35
Lat/Long: 33-17-04.2100N / 116-40-10.7650W
33-17.070167N / 116-40.179417W
33.2845028 / -116.6696569
(estimated)
Elevation: 2880 ft. / 878 m (estimated)
Variation: 13E (1985)
From city: 2 miles E of WARNER SPRINGS, CA
Time zone: UTC -8 (UTC -7 during Daylight Saving Time)
Zip code: 92086

Gliderport Operations

Gliderport use: Private use. Permission required prior to landing
Activation date: 10/1984
Control tower: no
ARTCC: LOS ANGELES CENTER
FSS: SAN DIEGO FLIGHT SERVICE STATION
Attendance: 0900-1700
Wind indicator: yes
Segmented circle: yes
Landing fee: yes

Gliderport Communications

UNICOM: 122.8
WX AWOS-3P at L08 (18 nm E): 126.575 (760-767-3308)
WX ASOS at RNM (19 nm SW): 132.025 (760-789-0736)

Nearby radio navigation aids

VOR radial/distance  VOR name  Freq  Var
JLIr319/9.6JULIAN VORTAC114.0015E
TRMr218/32.8THERMAL VORTAC116.2013E
PSPr186/37.1PALM SPRINGS VORTAC115.5013E
OCNr071/37.6OCEANSIDE VORTAC115.3015E
HDFr125/(39.2)HOMELAND VOR113.4014E

Gliderport Services

Runway Information

Runway 8/26

Dimensions: 3500 x 70 ft. / 1067 x 21 m
Surface: asphalt
RUNWAY 8  RUNWAY 26
Latitude: 33-17.060333N33-17.080000N
Longitude: 116-40.522667W116-39.836167W
Elevation: 2873.0 ft.2914.0 ft.
Traffic pattern: leftleft
Obstructions: none200 ft. hill, 5200 ft. from runway

Gliderport Ownership and Management from official FAA records

Ownership: Privately-owned
Owner: WARNER SPRINGS RANCH RESORT, LLC
31930 HWY 79
WARNER SPRINGS, CA 92086
Phone 760-782-4200
SKY SAILING 31930 HWY 79.
Manager: BRET WILLAT
SKY SAILING 31930 HWY 79
WARNER SPRINGS, CA 92086
Phone 760-782-0404
LEASEE.

Gliderport Operational Statistics

Aircraft based on the field: 80
Single engine airplanes: 10
Gliders airplanes: 70
    

Instrument Procedures

There are no published instrument procedures at CL35.

Some nearby airports with instrument procedures:

L08 - Borrego Valley Airport (18 nm E)
KRNM - Ramona Airport (19 nm SW)
F70 - French Valley Airport (29 nm NW)
L18 - Fallbrook Community Airpark (29 nm W)
KSEE - Gillespie Field Airport (31 nm SW)
 
Loc | Ops | Rwys | IFR | FBO | Links
Com | Nav | Svcs | Stats | Notes
Area around CL35 (Warner Springs Gliderport)
 
Road maps at: MapQuest Bing Google
 
Aerial photo
WARNING: Photo may not be current or correct
Aerial photo of CL35 (Warner Springs Gliderport)
Photo by Steve Lupinacci
Photo taken 27-May-2008

Do you have a better or more recent aerial photo of Warner Springs Gliderport that you would like to share? If so, please send us your photo.

 
Sectional chart

 
Airport distance calculator
Flying to Warner Springs Gliderport? Find the distance to fly.

From to CL35

Sunrise and sunset
Times for 22-Mar-2019
 Local
(UTC-7)
 Zulu
(UTC)
Morning civil twilight06:2413:24
Sunrise06:4913:49
Sunset18:5901:59
Evening civil twilight19:2302:23

Current date and time
Zulu (UTC)  23-Mar-2019 01:33:41
Local (UTC-7)  22-Mar-2019 18:33:41
 
METAR
KL08 
18nm E 
230115Z AUTO 11009KT 10SM CLR 23/M01 A3002 RMK AO2
KRNM 
20nm SW 
230053Z 28009KT 10SM FEW030 14/09 A3011 RMK AO2 SLP196 T01390089
KF70 
29nm NW 
230115Z AUTO 20006KT 10SM SCT041 17/09 A3010 RMK AO1
KL18 
29nm W 
230115Z AUTO 23007KT 10SM CLR 14/10 A3012 RMK AO2
KSEE 
32nm SW 
230047Z 27010KT 10SM SKC 15/09 A3013
KCRQ 
32nm W 
230053Z 28006KT 10SM CLR 16/10 A3012 RMK AO2 SLP199 T01560100
KTRM 
33nm NE 
230052Z AUTO 21005KT 10SM CLR 26/01 A3000 RMK AO2 SLP160 T02560011
KPSP 
33nm N 
230053Z 33012KT 10SM CLR 23/04 A3004 RMK AO2 SLP173 T02330044
KNFG 
33nm W 
230055Z AUTO 25005KT 10SM CLR 15/11 A3012 RMK AO2 SLP198 T01500111 $
KNKX 
34nm SW 
230055Z 31007KT 10SM CLR 17/10 A3012 RMK AO2 SLP197 T01720100
TAF
KCRQ 
32nm W 
221720Z 2218/2318 VRB04KT P6SM SCT012 FM222000 25008KT P6SM FEW020 FM230000 VRB04KT P6SM SCT020 FM230700 VRB04KT P6SM BKN015
KTRM 
33nm NE 
222053Z 2221/2318 33008KT P6SM SKC FM231500 VRB05KT P6SM SKC
KPSP 
33nm N 
221720Z 2218/2318 VRB04KT P6SM SKC FM230000 33010KT P6SM SKC FM230600 VRB04KT P6SM SKC
KNFG 
33nm W 
2221/2321 25007KT 9999 BKN035 QNH3011INS TEMPO 2221/2301 24010G18KT FM230200 VRB05KT 9999 SCT020 QNH3013INS BECMG 2317/2319 24009KT 9999 BKN030 QNH3014INS T07/2212Z T17/2321Z
KNKX 
34nm SW 
2221/2321 30009KT 9999 FEW015 SCT030 SCT200 QNH3011INS BECMG 2303/2305 VRB05KT 9999 SCT015 QNH3015INS BECMG 2317/2319 29008KT 9999 FEW015 SCT200 QNH3012INS T18/2221Z T11/2313Z
NOTAMs
Click for the latest NOTAMs
NOTAMs are issued by the DoD/FAA and will open in a separate window not controlled by AirNav.

 

 
 

Would you like to see your business listed on this page?

 If your business provides an interesting product or service to pilots, flight crews, aircraft, or users of the Warner Springs Gliderport, you should consider listing it here.  To start the listing process, click on the button below
 
Add a business
 

Other Pages about Warner Springs Gliderport

www.agcsc.org/warner_springs_info.html
 
Update a link
 
Copyright © AirNav, LLC. All rights reserved. Privacy Policy  Contact